Vorticity
10 5 -3 -4 -7 11 2 -3 -1 12 15 -1 6 8 13 12 16 4 2 3 17 7 6 14 11 6 13 16 12 12 4 6 9 12 12 12 12 11 11 9 11 11 13 14
7 4 2 13 10 1 1 12 14 13 17 13 10 16 5 6 10 12 0 20 5 -0 8 5 11 16 10 8 5 2 6 7 10 9 10 9 10 9 8 9 9 12 17 19
3 9 -12 8 -0 2 9 10 7 12 6 2 7 5 19 6 24 10 1 -0 -5 4 4 12 11 7 7 4 2 5 7 8 12 10 9 9 9 7 6 5 8 12 12 22
18 18 12 9 10 18 8 15 16 2 1 4 -0 -1 -6 2 24 6 -3 6 9 0 22 8 5 7 4 2 2 4 10 9 8 8 9 10 9 8 7 4 6 9 15 18
-5 23 9 11 10 14 17 -12 7 2 9 9 11 18 10 71 11 -2 -3 4 -6 9 9 5 4 5 4 1 2 10 10 7 9 9 10 10 8 6 6 4 -0 3 20 16
15 17 9 7 2 11 -3 4 11 5 8 24 8 45 7 28 25 21 15 -8 -3 17 9 7 9 8 2 0 7 11 8 10 10 10 10 10 7 6 7 6 6 -3 16 19
9 6 5 11 4 13 5 7 7 34 37 -0 53 18 23 9 13 4 -10 -0 -3 8 13 7 12 3 7 10 11 11 10 12 9 10 9 6 6 7 8 7 10 3 14 21
33 19 12 4 19 -8 35 6 -7 15 7 -15 -11 17 16 -7 2 10 -7 12 17 13 21 4 6 4 5 5 11 12 14 9 9 10 9 6 6 8 7 6 7 3 8 16
15 12 2 7 9 8 3 5 11 10 7 26 6 9 16 17 15 12 8 6 12 9 2 1 -13 -2 4 12 11 16 12 8 10 10 7 6 7 8 7 7 8 3 1 19
18 14 -0 1 5 5 2 -16 8 8 9 6 1 -5 19 10 -1 10 10 8 7 -3 12 -16 -8 2 7 21 13 14 10 8 9 8 7 6 8 8 8 7 9 9 0 11
9 10 15 18 -8 6 32 0 9 14 -5 -0 12 7 6 10 3 1 -9 -0 4 -10 8 -1 2 17 19 13 15 11 9 9 10 8 7 7 7 8 8 8 8 9 6 2
9 20 15 0 -5 12 9 4 5 -3 10 2 1 7 10 14 1 11 16 9 11 9 7 6 -1 18 26 13 14 10 9 9 9 8 7 7 8 8 8 7 8 7 8 2
18 18 9 24 17 9 6 15 23 18 -1 -2 5 -16 -13 -37 2 7 3 4 7 2 6 -1 12 14 16 12 11 9 10 9 9 8 8 7 8 9 8 8 9 8 8 11
3 12 4 -5 -32 8 7 5 2 3 17 7 -0 1 5 7 3 5 16 24 13 6 0 12 17 16 11 10 10 10 10 9 9 9 8 8 9 8 8 9 10 9 10 10
3 5 7 11 9 7 8 7 6 12 10 5 4 4 6 12 12 20 20 1 5 8 24 17 24 21 15 12 10 10 10 9 9 9 8 9 9 9 8 9 10 10 9 9
10 4 8 9 6 9 7 10 14 14 10 10 14 11 11 20 24 0 4 13 34 -7 26 14 43 12 9 10 9 10 9 9 9 9 8 10 11 9 8 9 9 9 9 8
5 13 4 2 13 15 33 29 20 13 15 15 11 10 22 5 6 -8 27 35 7 14 18 11 10 14 8 11 10 9 9 9 9 9 9 11 10 9 9 9 8 8 8 8
3 13 0 -6 -4 25 -2 36 24 21 11 7 6 4 27 24 14 4 27 11 9 11 21 12 11 7 10 11 10 9 9 11 10 9 10 11 9 9 9 8 8 9 9 8
7 2 5 7 0 -27 -24 -8 -0 18 -2 -3 12 21 6 1 15 6 8 -0 43 9 10 10 6 9 11 10 9 10 11 11 10 10 11 10 8 8 9 9 8 9 9 9
6 6 4 -1 -6 13 27 43 12 9 3 22 8 4 1 -7 4 -1 23 9 18 17 7 4 9 11 10 9 11 12 12 10 11 10 11 9 8 9 8 8 8 8 9 8
26 14 2 8 8 17 9 5 10 10 23 7 12 -1 -0 -0 9 6 27 36 17 10 9 8 12 10 10 12 12 12 12 12 9 10 8 7 8 8 8 9 9 8 7 7
8 3 19 6 9 33 3 1 0 -2 -7 -6 5 14 -4 -13 24 43 15 6 10 10 10 9 10 12 12 12 13 14 13 10 10 5 7 9 10 10 8 8 7 7 8 7
6 -6 1 9 21 -11 7 10 -14 -2 10 14 5 -8 2 8 18 3 4 8 10 10 12 9 8 13 11 11 13 13 12 11 4 8 11 10 9 9 10 10 9 9 8 8
8 20 14 -8 14 -3 3 4 -3 10 1 -2 -12 14 10 29 7 3 9 9 10 9 11 16 8 11 10 12 12 15 12 6 8 12 9 8 8 8 9 8 8 7 8 8
18 23 14 14 14 16 6 9 10 11 -2 5 -2 13 21 21 7 7 10 9 11 9 12 14 10 8 10 13 15 14 7 4 13 9 8 8 8 8 7 8 8 7 7 8
-8 8 9 8 18 17 11 6 2 6 -12 9 6 8 22 21 14 5 15 11 11 10 15 14 9 11 13 15 11 11 9 14 9 8 7 7 7 7 6 5 5 6 7 8
Height
3119 3119 3116 3118 3118 3115 3114 3114 3113 3114 3115 3115 3112 3111 3112 3108 3104 3105 3107 3104 3103 3100 3097 3098 3097 3096 3094 3093 3091 3089 3087 3084 3081 3077 3074 3071 3067 3064 3060 3056 3050 3044 3038 3032
3116 3112 3112 3112 3112 3112 3113 3111 3110 3110 3109 3109 3110 3108 3107 3107 3099 3101 3101 3101 3101 3097 3095 3093 3093 3092 3090 3089 3088 3086 3083 3079 3076 3073 3069 3065 3061 3057 3052 3048 3043 3036 3028 3020
3109 3109 3109 3107 3107 3109 3110 3110 3107 3108 3106 3103 3104 3102 3099 3098 3095 3096 3098 3098 3096 3094 3092 3090 3090 3089 3087 3086 3084 3081 3078 3074 3071 3068 3064 3061 3057 3053 3049 3043 3035 3026 3017 3009
3103 3105 3104 3104 3103 3104 3104 3105 3103 3104 3106 3102 3102 3094 3094 3092 3090 3090 3091 3092 3092 3091 3090 3088 3087 3085 3083 3083 3080 3077 3073 3069 3066 3063 3059 3056 3052 3048 3042 3034 3026 3017 3008 3001
3099 3099 3098 3099 3101 3100 3100 3100 3101 3101 3100 3098 3098 3095 3087 3084 3085 3085 3087 3089 3089 3088 3087 3085 3084 3082 3080 3079 3076 3073 3069 3065 3062 3058 3055 3051 3047 3042 3035 3030 3021 3015 3007 2996
3095 3096 3094 3097 3097 3096 3098 3098 3098 3096 3094 3092 3089 3086 3083 3082 3084 3087 3085 3087 3085 3085 3084 3083 3082 3079 3077 3075 3072 3069 3064 3061 3057 3054 3051 3047 3043 3037 3032 3023 3017 3012 3003 2993
3090 3090 3090 3091 3093 3094 3094 3097 3094 3088 3084 3083 3082 3084 3083 3080 3082 3081 3083 3083 3081 3082 3080 3079 3078 3076 3074 3071 3068 3064 3060 3057 3054 3051 3047 3043 3038 3033 3027 3020 3015 3009 2999 2988
3084 3086 3086 3086 3088 3091 3090 3093 3092 3088 3087 3083 3079 3081 3080 3079 3079 3079 3080 3080 3079 3079 3077 3077 3075 3073 3070 3067 3064 3060 3056 3053 3050 3047 3044 3039 3035 3030 3022 3015 3011 3007 2996 2985
3079 3080 3081 3083 3086 3088 3089 3089 3091 3089 3089 3086 3084 3081 3077 3075 3076 3076 3076 3077 3075 3075 3074 3072 3070 3067 3065 3061 3059 3056 3053 3050 3047 3043 3040 3035 3032 3027 3019 3013 3011 3005 2995 2986
3077 3078 3080 3082 3082 3083 3084 3087 3087 3088 3088 3083 3076 3076 3075 3075 3074 3074 3074 3074 3073 3071 3069 3069 3064 3060 3060 3057 3054 3051 3049 3046 3043 3039 3036 3033 3029 3023 3016 3012 3010 3003 2995 2984
3076 3078 3079 3079 3078 3080 3081 3081 3082 3083 3082 3079 3076 3073 3073 3073 3072 3071 3071 3069 3068 3066 3065 3061 3059 3055 3053 3051 3049 3046 3044 3042 3039 3035 3033 3030 3025 3019 3013 3010 3007 3001 2995 2986
3073 3072 3073 3075 3076 3075 3077 3077 3077 3077 3078 3076 3076 3067 3072 3070 3069 3066 3066 3067 3063 3060 3059 3056 3054 3050 3047 3045 3043 3041 3040 3037 3035 3032 3030 3026 3021 3016 3012 3009 3005 3000 2994 2986
3067 3070 3070 3072 3074 3072 3071 3074 3073 3073 3074 3072 3074 3067 3068 3068 3068 3065 3060 3057 3056 3053 3052 3050 3046 3044 3041 3040 3038 3037 3036 3033 3031 3029 3026 3022 3018 3014 3011 3008 3004 2999 2993 2987
3065 3066 3067 3068 3067 3070 3070 3069 3068 3069 3068 3067 3063 3064 3062 3064 3060 3058 3057 3052 3050 3047 3045 3043 3039 3037 3036 3035 3034 3033 3031 3030 3028 3026 3023 3019 3015 3012 3009 3006 3002 2998 2992 2987
3062 3063 3065 3065 3066 3064 3064 3064 3064 3064 3063 3063 3054 3062 3058 3057 3054 3052 3047 3043 3043 3042 3040 3036 3032 3031 3030 3030 3030 3029 3027 3026 3024 3022 3020 3017 3013 3010 3007 3004 3001 2997 2992 2987
3058 3059 3060 3059 3059 3060 3058 3058 3058 3058 3056 3055 3055 3052 3054 3052 3047 3044 3042 3038 3036 3035 3032 3030 3027 3027 3027 3027 3026 3025 3024 3022 3021 3019 3016 3014 3011 3008 3006 3003 3000 2996 2992 2987
3055 3056 3057 3055 3056 3054 3051 3051 3051 3050 3050 3051 3050 3049 3045 3043 3040 3038 3037 3032 3030 3027 3026 3026 3025 3025 3023 3024 3022 3021 3020 3019 3017 3016 3014 3011 3009 3007 3005 3002 2999 2996 2992 2987
3050 3052 3053 3052 3053 3050 3045 3045 3045 3044 3044 3045 3045 3044 3039 3035 3034 3033 3033 3030 3026 3024 3024 3023 3022 3022 3020 3020 3019 3017 3016 3016 3014 3013 3011 3009 3007 3005 3003 3001 2998 2995 2991 2988
3044 3048 3048 3047 3046 3043 3043 3042 3041 3040 3040 3040 3039 3038 3036 3034 3031 3028 3028 3026 3023 3021 3021 3021 3019 3018 3017 3016 3015 3014 3013 3012 3011 3010 3008 3007 3005 3004 3003 3000 2997 2993 2990 2987
3038 3041 3044 3043 3042 3037 3037 3036 3034 3035 3036 3033 3032 3032 3031 3030 3027 3026 3024 3022 3020 3019 3018 3017 3015 3014 3013 3011 3011 3010 3010 3009 3008 3007 3006 3005 3003 3002 3000 2998 2995 2992 2989 2986
3031 3034 3034 3037 3036 3033 3033 3034 3030 3034 3034 3029 3029 3029 3027 3025 3023 3018 3017 3015 3015 3014 3013 3012 3011 3010 3008 3007 3007 3007 3006 3006 3005 3005 3004 3003 3001 3000 2997 2995 2993 2990 2987 2984
3025 3027 3028 3031 3032 3027 3028 3027 3029 3030 3026 3027 3026 3023 3021 3019 3017 3013 3012 3012 3011 3009 3008 3007 3006 3005 3004 3004 3003 3003 3004 3003 3003 3003 3001 3000 2999 2997 2995 2993 2990 2987 2985 2982
3020 3021 3021 3022 3021 3020 3020 3021 3021 3022 3023 3020 3019 3017 3015 3013 3012 3011 3010 3008 3006 3005 3004 3003 3002 3002 3001 3001 3000 3000 3000 3001 3001 3000 2999 2998 2997 2995 2993 2991 2988 2985 2983 2979
3014 3015 3014 3016 3016 3018 3018 3018 3018 3018 3016 3015 3012 3011 3009 3006 3006 3005 3004 3003 3001 3000 2999 2999 2998 2998 2998 2998 2997 2998 2998 2998 2998 2998 2997 2996 2995 2993 2991 2989 2986 2983 2980 2977
3007 3006 3008 3008 3010 3012 3013 3013 3012 3010 3010 3009 3005 3004 3003 3000 3000 3000 2999 2997 2996 2995 2994 2994 2994 2994 2994 2994 2994 2995 2995 2995 2995 2995 2995 2994 2993 2991 2990 2987 2984 2981 2978 2975
3002 3004 3004 3002 3005 3006 3007 3007 3005 3003 3003 3003 3000 2998 2997 2996 2993 2994 2993 2993 2991 2990 2990 2990 2990 2990 2990 2990 2991 2991 2992 2992 2993 2993 2993 2992 2990 2989 2987 2984 2982 2979 2976 2973